Flag for Germany Weather past 2 weeks in Weinheim, Baden-Württemberg, Germany

Now
90 °F

Sunny.


Feels Like: 87 °F
Forecast: 62 / 84 °F
Wind: 6 mph from North

Location: Baden Wurttemberg - Neuostheim

Current Time: Aug 3, 2015 at 5:38:39 PM

Latest Report: Aug 3, 2015 at 4:50 PM


Visibility: 10 mi

Pressure: 29.98 "Hg

Humidity: 27%

Dew point: 52 °F

Location of WeinheimLocation

Historic Weather in Weinheim — Graph

°F

Weinheim temperature yesterday

Maximum temperature yesterday: 86 °F (at 4:20 PM)
Minimum temperature yesterday: 63 °F (at 7:50 AM)
Average temperature yesterday: 79 °F

Past Weeks' High & Low Weather Summary

 TemperatureHumidityPressure
High93 °F (Jul 22, 3:50 PM)100% (Jul 19, 4:20 PM)30.12 "Hg (Jul 19, 4:20 PM)
Low50 °F (Jul 30, 5:50 AM)22% (Aug 3, 3:50 PM)29.65 "Hg (Jul 24, 7:50 PM)
Average73 °F52%29.92 "Hg
* Reported Jul 19 4:20 PM — Aug 3 4:20 PM, Weinheim, Weather by CustomWeather, © 2015

Note: Actual official high and low records may vary slightly from our data, if they occured in-between our weather recording intervals... More about our weather records

Advertising

Weinheim weather history for previous 24 hours

 ConditionsComfort  
Time TempWeatherWind HumidityBarometerVisibility
4:20 PM
Mon, Aug 3
90 °FPassing clouds.8 mph24%29.98 "HgN/A
3:50 PM90 °FPassing clouds.8 mph22%29.98 "HgN/A
3:20 PM90 °FPassing clouds.9 mph24%30.01 "HgN/A
2:50 PM88 °FPassing clouds.9 mph27%30.01 "HgN/A
2:20 PM88 °FPassing clouds.7 mph29%30.01 "HgN/A
1:50 PM88 °FPassing clouds.9 mph31%30.01 "HgN/A
1:20 PM88 °FPassing clouds.8 mph31%30.01 "HgN/A
12:50 PM86 °FPassing clouds.6 mph35%30.04 "HgN/A
12:20 PM84 °FPassing clouds.7 mph33%30.04 "HgN/A
11:50 AM82 °FPassing clouds.6 mph35%30.04 "HgN/A
11:20 AM82 °FPassing clouds.7 mph32%30.04 "HgN/A
10:50 AM82 °FPassing clouds.8 mph35%30.04 "HgN/A
10:20 AM77 °FPassing clouds.5 mph44%30.04 "HgN/A
9:50 AM77 °FSunny.3 mph44%30.04 "Hg10 mi
9:20 AM73 °FSunny.2 mph50%30.04 "Hg10 mi
8:50 AM73 °FSunny.1 mph50%30.04 "Hg10 mi
8:20 AM70 °FSunny.3 mph57%30.04 "Hg10 mi
7:50 AM68 °FSunny.2 mph60%30.04 "Hg10 mi
7:20 AM66 °FSunny.1 mph68%30.04 "Hg10 mi
6:50 AM63 °FClear.2 mph77%30.04 "Hg10 mi
5:50 AM61 °FClear.1 mph77%30.04 "Hg10 mi
8:20 PM
Sun, Aug 2
84 °FSunny.3 mph29%30.01 "Hg10 mi
7:50 PM84 °FSunny.2 mph29%30.01 "Hg10 mi
7:20 PM84 °FPassing clouds.5 mph29%30.04 "HgN/A
6:50 PM86 °FSunny.3 mph27%30.04 "Hg10 mi
6:20 PM86 °FPassing clouds.6 mph27%30.04 "HgN/A
5:50 PM86 °FSunny.3 mph27%30.04 "Hg10 mi
5:20 PM84 °FPassing clouds.6 mph29%30.04 "HgN/A
Weather by CustomWeather, © 2015

See weather overviewHow to use our weather pages